Hourly Data Report for June 08, 2003

TORONTO CITY
ONTARIO

43°40'00.000" N
79°24'00.000" W
112.50 m
6158355
71508
XTO

Download Data

Hourly Data (June 2003)
Hourly Data Report for June 8, 2003
TIME
LST
Temp Definition
°C
Dew Point Definition
°C
Rel Hum Definition
%
Precip. Amount Definition
mm

Wind Dir Definition
10's deg

Wind Spd Definition
km/h
Visibility Definition
km
Stn Press Definition
kPa
Hmdx Definition


Wind Chill Definition


Weather Definition


00:00 15.0 14.5 97   LegendMM LegendMM LegendMM 99.63     LegendNANA
01:00 15.0 14.7 98   LegendMM LegendMM LegendMM 99.63     LegendNANA
02:00 13.8 13.3 97   LegendMM LegendMM LegendMM 99.62     LegendNANA
03:00 13.8 13.5 98   LegendMM LegendMM LegendMM 99.58     LegendNANA
04:00 14.1 14.0 99   LegendMM LegendMM LegendMM 99.57     LegendNANA
05:00 13.7 13.6 99   LegendMM LegendMM LegendMM 99.59     LegendNANA
06:00 13.5 13.5 100   LegendMM LegendMM LegendMM 99.59     LegendNANA
07:00 13.8 13.7 99   LegendMM LegendMM LegendMM 99.60     LegendNANA
08:00 13.7 13.6 99   LegendMM LegendMM LegendMM 99.63     LegendNANA
09:00 14.8 14.0 95   LegendMM LegendMM LegendMM 99.63     LegendNANA
10:00 16.4 14.1 86   LegendMM LegendMM LegendMM 99.61     LegendNANA
11:00 16.3 13.6 84   LegendMM LegendMM LegendMM 99.59     LegendNANA
12:00 16.5 13.4 82   LegendMM LegendMM LegendMM 99.54     LegendNANA
13:00 19.2 15.3 78   LegendMM LegendMM LegendMM 99.45     LegendNANA
14:00 19.0 15.7 81   LegendMM LegendMM LegendMM 99.29     LegendNANA
15:00 19.4 15.3 77   LegendMM LegendMM LegendMM 99.23     LegendNANA
16:00 18.9 15.0 78   LegendMM LegendMM LegendMM 99.20     LegendNANA
17:00 18.6 15.5 82   LegendMM LegendMM LegendMM 99.09     LegendNANA
18:00 18.2 15.5 84   LegendMM LegendMM LegendMM 99.01     LegendNANA
19:00 17.4 16.4 94   LegendMM LegendMM LegendMM 99.00     LegendNANA
20:00 16.5 16.0 97   LegendMM LegendMM LegendMM 99.00     LegendNANA
21:00 15.8 15.5 98   LegendMM LegendMM LegendMM 99.03     LegendNANA
22:00 15.5 15.2 98   LegendMM LegendMM LegendMM 98.91     LegendNANA
23:00 12.3 11.8 97   LegendMM LegendMM LegendMM 98.96     LegendNANA

Notes on Data Quality.

Legend

  • E = Estimated
  • M = Missing
  • NA = Not Available*
  • [empty] = Indicates an unobserved value
Date modified: